This demonstration page uses our WeatherBlox Daily Observations layout. Learn more.

Left ArrowRight Arrow

Hourly Observations for July 31, 2015

Temp ( °F °C ) Dew Point ( °F °C ) Humidity (%) Winds ( mph kmh ) Pressure ( in mb ) Visibility ( mi km ) Precip ( " mm )
12:53 am 00:53 Clear 84 28.9 57 13.9 40 40 W 6 9 29.88 1012 10 16 0.00 0.00
1:53 am 01:53 Clear 81 27.2 56 13.3 42 42 WNW 3 6 29.88 1012 10 16 0.00 0.00
2:53 am 02:53 Clear 80 26.7 54 12.2 41 41 NE 3 6 29.90 1013 10 16 0.00 0.00
3:53 am 03:53 Clear 78 25.6 53 11.7 42 42 Calm 29.91 1013 10 16 0.00 0.00
4:53 am 04:53 Clear 77 25 54 12.2 45 45 NNW 3 6 29.91 1013 10 16 0.00 0.00
5:53 am 05:53 Clear 75 23.9 53 11.7 46 46 Calm 29.91 1013 10 16 0.00 0.00
6:53 am 06:53 Sunny 76 24.4 54 12.2 47 47 NNW 5 7 29.92 1013 10 16 0.00 0.00
7:53 am 07:53 Sunny 81 27.2 55 12.8 41 41 Calm 29.94 1014 10 16 0.00 0.00
8:11 am 08:11 Mostly Sunny 82 27.8 54 12.2 38 38 Calm 29.94 1014 10 16 0.00 0.00
8:53 am 08:53 Sunny 85 29.4 53 11.7 33 33 SSW 8 13 29.95 1014 10 16 0.00 0.00
9:53 am 09:53 Sunny 87 30.6 56 13.3 35 35 Calm 29.95 1014 10 16 0.00 0.00
10:53 am 10:53 Sunny 93 33.9 55 12.8 28 28 Calm 29.94 1014 10 16 0.00 0.00
11:53 am 11:53 Sunny 97 36.1 54 12.2 24 24 NW 5 7 29.93 1013 10 16 0.00 0.00
12:53 pm 12:53 Sunny 103 39.4 53 11.7 19 19 VRB 3 6 29.91 1013 10 16 0.00 0.00
1:53 pm 13:53 Sunny 104 40 50 10 16 16 VRB 3 6 29.89 1012 10 16 0.00 0.00
2:53 pm 14:53 Sunny 104 40 46 7.8 14 14 VRB 5 7 29.87 1012 10 16 0.00 0.00
3:53 pm 15:53 Sunny 104 40 48 8.9 15 15 SE 5 7 29.84 1011 10 16 0.00 0.00
4:53 pm 16:53 Sunny 98 36.7 57 13.9 25 25 SSE 28 44 29.83 1010 10 16 0.00 0.00
5:53 pm 17:53 Sunny 100 37.8 55 12.8 22 22 SSE 8 13 29.82 1010 10 16 0.00 0.00
6:53 pm 18:53 Sunny 100 37.8 54 12.2 21 21 SSE 7 11 29.81 1010 10 16 0.00 0.00
7:53 pm 19:53 Sunny 97 36.1 55 12.8 24 24 N 5 7 29.80 1009 10 16 0.00 0.00
8:53 pm 20:53 Clear 95 35 53 11.7 24 24 NE 3 6 29.81 1010 10 16 0.00 0.00
9:53 pm 21:53 Clear 88 31.1 55 12.8 33 33 Calm 29.82 1010 10 16 0.00 0.00
10:53 pm 22:53 Clear 87 30.6 55 12.8 34 34 Calm 29.81 1010 10 16 0.00 0.00
11:53 pm 23:53 Clear 83 28.3 55 12.8 38 38 W 3 6 29.82 1010 10 16 0.00 0.00

Powered by AerisWeather